AirNav   Air Wisconsin Up To $57,000 Bonus
 
 479 users online  

IA70 Friesenborg & Larson Airport
Buffalo Center, Iowa, USA

GOING TO BUFFALO CENTER?


FAA INFORMATION EFFECTIVE 16 JUNE 2022

Location

FAA Identifier: IA70
Lat/Long: 43-25-32.8390N 093-50-08.8130W
43-25.547317N 093-50.146883W
43.4257886,-93.8357814
(estimated)
Elevation: 1220 ft. / 372 m (estimated)
Variation: 04E (1985)
From city: 5 miles NE of BUFFALO CENTER, IA
Time zone: UTC -5 (UTC -6 during Standard Time)
Zip code: 50424

Airport Operations

Airport use: Private use. Permission required prior to landing
Activation date: 09/1979
Control tower: no
ARTCC: MINNEAPOLIS CENTER
FSS: FORT DODGE FLIGHT SERVICE STATION
Attendance: UNATNDD
Wind indicator: yes
Segmented circle: no

Airport Communications

WX AWOS-3 at FXY (15 nm SE): 123.925 (641-581-2347)

Airport Services

Runway Information

Runway 17/35

Dimensions: 2900 x 100 ft. / 884 x 30 m
Surface: turf
RUNWAY 17  RUNWAY 35
Traffic pattern: leftleft
Obstructions: pline, 2500 ft. from runwaypline, 2500 ft. from runway

Airport Ownership and Management from official FAA records

Ownership: Privately-owned
Owner: FRIESENBORG & LARSON, INC.
45884 70TH AVE
BUFFALO CENTER, IA 50424
Phone 515-584-2379
Manager: JOE LARSON
45884 70TH AVE
BUFFALO CENTER, IA 50424
Phone (515) 584-2258

Airport Operational Statistics

Aircraft based on the field: 1
Single engine airplanes: 1
    

Additional Remarks

FOR CD CTC MINNEAPOLIS ARTCC AT 651-463-5588.

Instrument Procedures

There are no published instrument procedures at IA70.

Some nearby airports with instrument procedures:

KFXY - Forest City Municipal Airport (15 nm SE)
KSBU - Blue Earth Municipal Airport (15 nm NW)
KAEL - Albert Lea Municipal Airport (25 nm NE)
KMCW - Mason City Municipal Airport (27 nm SE)
KAXA - Algona Municipal Airport (28 nm SW)
 
Loc | Ops | Rwys | IFR | FBO | Links
Com | Nav | Svcs | Stats | Notes
Area around IA70 (Friesenborg & Larson Airport)
 
Road maps at: MapQuest Bing Google
 
Aerial photo
No photo
 
Sectional chart

 
Airport distance calculator
Flying to Friesenborg & Larson Airport? Find the distance to fly.

From to IA70

Sunrise and sunset
Times for 27-Jun-2022
 Local
(UTC-5)
 Zulu
(UTC)
Morning civil twilight05:0210:02
Sunrise05:3810:38
Sunset20:5901:59
Evening civil twilight21:3502:35

Current date and time
Zulu (UTC)  27-Jun-2022 10:41:38
Local (UTC-5)  27-Jun-2022 05:41:38
 
METAR
KFXY 
15nm SE 
271015Z AUTO 00000KT 10SM CLR 09/08 A3029 RMK AO2
KAEL 
25nm NE 
271015Z AUTO 00000KT 10SM CLR 12/08 A3027 RMK AO2
KMCW 
27nm SE 
270953Z AUTO 26005KT 10SM CLR 11/08 A3029 RMK AO2 SLP249 T01110078
KFRM 
28nm NW 
270956Z AUTO 22004KT 10SM CLR 12/08 A3028 RMK AO2 SLP254 T01220083
KAXA 
29nm SW 
271015Z AUTO 24006KT 10SM CLR 10/10 A3028 RMK A01
TAF
KMCW 
27nm SE 
270520Z 2706/2806 28005KT P6SM SKC FM271600 28010KT P6SM FEW060 FM280100 23004KT P6SM SKC
NOTAMs
Click for the latest NOTAMs
NOTAMs are issued by the DoD/FAA and will open in a separate window not controlled by AirNav.

 

 
 

Would you like to see your business listed on this page?

 If your business provides an interesting product or service to pilots, flight crews, aircraft, or users of the Friesenborg & Larson Airport, you should consider listing it here.  To start the listing process, click on the button below
 
Add a business
 

Other Pages about Friesenborg & Larson Airport

Update a link
 
Copyright © AirNav, LLC. All rights reserved. Privacy Policy  Contact